GW1353 Weather Reports


time (UTC)temp
C
wind
direction
speed
KPH
gust
KPH
rain 1hr
cm
rain 24hr
cm
rain mn
cm
humidity
%
barometer
mb
20260506233056 26 206 16.1 33.8 0.00 0.00 0.00 16 1023.9
20260506231553 26 360 19.3 40.2 0.00 0.00 0.00 17 1023.9
20260506230049 26 240 20.9 38.6 0.00 0.00 0.00 16 1023.9
20260506224553 27 217 11.3 30.6 0.00 0.00 0.00 15 1023.8
20260506223052 26 235 20.9 43.5 0.00 0.00 0.00 16 1024.0
20260506221555 26 225 17.7 33.8 0.00 0.00 0.00 15 1023.8
20260506220052 26 242 14.5 33.8 0.00 0.00 0.00 16 1024.0
20260506214602 26 223 16.1 53.1 0.00 0.00 0.00 16 1024.0
20260506213050 26 205 9.7 32.2 0.00 0.00 0.00 16 1024.1
20260506211700 26 252 19.3 43.5 0.00 0.00 0.00 15 1024.3
20260506210051 26 197 12.9 27.4 0.00 0.00 0.00 16 1024.4
20260506204552 26 225 11.3 38.6 0.00 0.00 0.00 16 1024.6
20260506203116 26 239 14.5 29.0 0.00 0.00 0.00 16 1024.7
20260506201552 26 194 17.7 30.6 0.00 0.00 0.00 15 1025.0
20260506200103 26 360 17.7 37.0 0.00 0.00 0.00 16 1025.2
20260506194605 26 205 17.7 35.4 0.00 0.00 0.00 16 1025.5
20260506193056 25 205 12.9 27.4 0.00 0.00 0.00 16 1025.9
20260506191615 25 360 12.9 35.4 0.00 0.00 0.00 16 1026.2
20260506184552 25 360 11.3 27.4 0.00 0.00 0.00 15 1026.4
20260506183059 24 360 14.5 32.2 0.00 0.00 0.00 16 1026.8
20260506181601 24 360 14.5 33.8 0.00 0.00 0.00 15 1026.8
20260506164551 22 360 11.3 24.1 0.00 0.00 0.00 15 1027.1
20260506131550 16 0 0.0 8.0 0.00 0.00 0.00 26 1026.1
20260506094605 16 227 6.4 16.1 0.00 0.00 0.00 29 1024.7
20260506021557 22 360 9.7 22.5 0.00 0.00 0.00 14 1024.0